Wind_Speed
10 10 9 8 8 9 9 9 10 10 10 11 11 12 12 12 12 12 12 12 12 11 10 11 11 11 11 11 11 11 12 12 12 12 12 12 12 12 12 12 12 13 12
10 10 10 10 9 9 10 10 11 11 11 11 12 13 13 13 13 13 13 12 12 11 11 11 12 12 12 12 12 12 13 13 13 13 13 13 13 14 14 14 14 14 14
12 11 11 10 10 10 11 11 11 12 12 12 12 13 13 13 13 14 13 13 13 13 13 12 13 13 13 13 13 13 13 14 14 14 14 14 14 14 15 15 15 15 15
13 12 11 11 12 12 12 12 12 12 12 12 13 13 13 14 14 14 14 13 14 14 13 13 14 14 14 14 14 14 14 14 14 14 15 15 15 15 15 16 16 16 16
13 13 12 12 12 12 12 12 13 13 13 13 13 14 14 14 14 15 14 14 14 14 14 14 14 15 15 15 16 15 15 15 15 15 15 15 15 15 16 17 16 17 17
15 15 14 13 13 13 14 14 14 14 14 14 14 14 15 15 15 15 15 15 15 14 14 15 15 16 16 16 16 16 16 16 16 16 17 17 17 16 17 17 18 18 18
16 16 15 14 14 15 15 15 15 15 15 15 15 15 15 15 16 16 16 16 16 15 15 16 16 16 17 17 17 17 17 17 16 17 17 18 18 18 18 18 19 19 19
17 16 16 15 15 15 15 15 15 15 16 16 16 16 16 16 17 17 17 17 17 17 16 17 17 17 18 18 18 18 18 17 17 17 18 18 18 19 19 19 19 20 20
17 17 17 16 16 16 16 16 16 16 16 16 17 17 17 17 18 18 18 17 18 18 17 17 18 18 18 18 18 18 18 18 18 18 18 18 19 20 20 20 20 20 20
18 17 17 17 17 17 17 17 17 17 17 17 18 18 18 18 18 19 18 18 18 18 18 18 18 18 18 18 19 19 18 19 19 19 19 19 19 19 20 21 21 21 21
18 18 17 17 18 18 19 18 18 19 18 19 19 18 19 20 20 20 19 19 18 18 18 19 19 19 19 19 19 19 19 19 19 18 19 19 20 20 20 21 22 22 22
19 18 19 19 19 19 20 20 20 20 21 21 20 20 20 21 21 21 21 20 19 19 19 20 20 20 19 19 19 19 19 19 20 19 20 20 20 20 20 21 22 22 22
20 19 20 19 19 20 21 20 20 21 22 22 22 21 21 21 22 22 22 21 21 21 21 21 21 21 20 20 20 20 20 20 20 20 20 20 20 21 22 22 22 22 22
21 20 20 20 21 21 21 21 21 22 22 22 23 23 22 22 22 23 23 23 23 23 22 22 22 22 21 21 20 20 20 20 21 21 21 21 21 21 21 21 22 22 22
20 20 20 21 22 22 22 21 21 22 23 23 23 24 23 23 24 24 24 24 23 23 23 23 22 22 22 22 22 21 21 21 21 21 22 22 22 22 21 21 22 21 22
20 21 21 22 22 23 23 23 23 23 24 24 24 24 24 24 25 25 25 25 24 23 23 22 22 21 21 22 22 22 21 21 22 21 22 22 23 23 23 22 23 23 22
22 22 22 23 24 24 24 24 24 24 25 24 24 25 25 26 25 25 25 25 24 24 24 24 23 22 21 21 21 21 22 22 22 22 22 22 22 23 23 23 23 23 23
23 23 23 24 25 25 25 25 24 24 24 23 24 25 26 26 25 26 26 24 24 24 24 24 23 22 21 21 21 21 21 21 22 22 22 22 23 23 23 23 24 24 24
24 24 23 24 25 25 25 25 25 25 25 25 26 25 25 25 25 26 24 24 24 24 23 23 22 21 21 21 21 21 21 21 21 22 22 22 23 23 23 23 23 24 25
24 23 24 25 26 26 27 26 26 26 26 27 26 25 25 26 26 25 24 23 23 23 22 22 22 22 22 21 21 21 21 22 21 22 23 23 23 23 24 24 23 23 24
25 25 25 25 26 26 27 27 27 27 27 27 27 26 25 25 23 23 23 22 22 23 22 21 21 22 22 22 22 21 22 22 22 22 22 22 23 23 23 24 24 24 24
26 27 26 26 26 27 27 27 28 28 28 27 27 26 25 24 23 23 23 22 22 22 22 21 22 22 22 22 22 22 22 22 22 22 22 23 23 23 23 24 24 25 25
27 28 28 28 28 28 29 29 29 28 27 26 26 26 25 23 23 22 22 22 23 22 22 22 22 22 22 22 22 21 21 21 22 22 23 23 23 24 24 24 24 26 26
28 29 29 30 30 30 29 29 28 27 27 26 25 25 25 24 23 23 23 22 22 21 21 22 22 22 21 21 21 22 22 22 22 22 23 23 24 24 25 25 26 27 28
30 31 31 31 31 30 29 29 28 27 26 26 26 25 24 24 23 23 23 22 22 22 22 21 21 20 21 21 21 22 23 22 22 23 23 24 24 24 25 26 27 28 29
32 33 32 31 30 30 29 28 27 26 25 25 24 24 23 23 23 23 21 21 21 21 20 20 20 21 21 21 21 22 22 22 22 22 23 24 24 25 26 26 27 28 29
Wind_Direction
349 349 350 345 342 337 330 323 320 316 312 309 308 306 306 305 304 304 303 302 300 293 286 281 278 276 274 270 265 260 254 251 249 250 251 247 244 244 240 239 238 238 238
343 343 342 337 332 328 323 320 316 313 311 309 308 306 303 302 302 301 300 300 297 293 288 283 278 276 275 273 268 261 258 255 253 251 250 249 246 245 245 244 242 241 239
343 339 334 328 323 322 319 317 314 311 309 308 306 305 303 302 302 300 299 298 295 292 287 283 280 277 275 274 271 265 261 259 257 254 253 252 249 248 247 246 245 244 243
338 337 331 325 321 319 315 313 310 308 305 306 305 304 303 302 301 299 298 297 294 291 287 284 282 280 277 274 272 268 264 260 259 259 256 255 252 250 248 248 248 244 243
329 329 324 321 319 319 315 312 310 308 305 304 306 304 301 300 298 297 296 295 294 291 288 285 283 280 278 274 272 268 266 263 261 261 259 257 253 251 250 250 250 246 243
322 322 319 316 316 315 313 310 308 306 304 303 304 302 299 297 296 295 294 294 293 291 287 284 283 281 278 276 272 269 267 265 262 260 258 256 254 253 253 252 251 249 246
316 316 316 313 308 307 307 307 306 305 302 301 300 300 297 295 294 292 291 291 291 289 286 284 283 283 281 277 273 271 268 267 263 260 258 257 256 253 252 252 252 250 249
314 313 316 313 309 305 303 304 304 303 302 301 299 298 297 295 294 291 289 288 289 288 285 283 282 280 279 277 274 272 270 268 265 262 259 259 258 256 253 252 252 251 251
315 313 312 312 307 302 299 300 300 300 300 299 297 296 294 292 293 292 289 287 287 287 286 284 282 280 279 277 276 274 270 267 264 262 261 258 257 257 255 254 253 250 249
314 313 310 308 307 304 301 299 301 300 298 298 298 296 295 292 292 291 289 286 285 285 286 285 284 282 279 277 276 274 271 268 264 261 258 258 257 256 257 257 257 251 249
313 312 310 306 306 305 304 302 302 300 299 299 297 295 293 290 289 289 288 286 284 284 284 285 284 282 278 278 277 274 272 268 263 262 259 257 257 256 257 258 258 254 252
311 311 310 307 304 303 303 300 301 299 299 298 294 292 291 289 287 287 286 285 283 283 283 283 281 279 278 277 277 275 272 269 266 264 262 259 257 256 256 256 256 255 253
311 311 309 307 305 301 302 298 296 298 297 295 290 288 287 287 286 286 286 284 283 282 283 283 280 279 277 276 276 274 273 271 267 265 265 262 260 258 257 256 254 255 254
312 313 309 307 305 302 302 300 296 296 293 292 288 285 284 283 283 285 286 284 282 281 281 281 280 278 276 274 275 272 270 270 268 265 264 263 260 258 257 256 256 256 254
313 311 309 307 307 305 304 302 298 295 295 294 289 285 283 282 281 281 282 280 279 279 277 277 277 276 276 275 273 273 271 270 268 266 263 263 260 257 257 257 256 255 254
311 309 308 309 306 305 305 304 302 299 299 296 290 284 282 283 281 279 279 279 277 276 276 276 275 275 275 273 273 273 273 271 268 266 265 264 261 258 258 256 255 256 254
311 310 309 308 308 307 305 305 304 302 300 298 294 291 285 283 281 280 279 276 274 274 275 276 276 274 274 271 269 270 270 271 268 265 264 264 261 258 257 257 256 255 255
314 312 311 310 309 307 305 303 302 302 300 298 297 291 287 285 283 279 277 276 277 278 277 274 275 272 272 270 269 269 270 269 269 265 263 263 261 259 257 257 256 255 255
317 314 313 312 309 307 305 303 301 301 300 298 299 294 288 287 287 280 277 275 279 280 276 274 274 274 274 272 270 270 269 270 267 265 265 265 262 260 260 258 257 256 256
318 315 312 313 311 309 307 303 301 301 299 297 297 294 290 288 288 285 279 275 277 277 276 277 276 275 274 271 269 269 269 268 265 264 265 265 262 260 261 259 260 257 257
320 316 312 311 311 309 307 304 302 301 300 298 296 296 293 291 287 283 282 277 275 275 274 276 275 275 273 271 270 271 270 268 264 264 265 265 262 260 260 260 259 256 255
319 316 314 311 309 307 306 304 302 301 299 298 296 295 292 289 286 285 282 275 275 275 275 275 275 275 274 273 272 272 271 268 265 264 265 264 262 261 261 261 261 258 256
315 314 313 312 310 308 306 305 304 302 299 295 292 292 290 288 286 284 283 280 278 278 275 274 274 274 273 273 272 272 272 269 265 263 264 264 263 263 263 262 260 258 259
315 315 313 312 311 310 308 307 304 302 298 295 291 290 289 286 281 281 282 281 280 277 276 276 276 274 274 274 273 272 272 270 267 264 264 264 266 266 265 263 261 260 260
316 315 314 313 312 312 309 308 307 304 300 295 290 287 285 282 280 281 281 279 278 278 276 275 275 274 274 274 274 273 271 271 269 265 265 265 267 267 266 264 261 260 260
317 317 315 313 313 312 310 308 306 305 302 297 291 286 283 283 281 280 280 279 277 278 277 275 275 276 273 272 273 273 272 272 272 268 267 266 266 266 265 264 262 261 261
Height
5897 5895 5893 5893 5892 5891 5890 5890 5889 5888 5887 5886 5885 5884 5883 5881 5880 5879 5879 5878 5877 5876 5875 5875 5874 5874 5873 5873 5872 5872 5871 5871 5871 5871 5872 5871 5872 5872 5873 5873 5874 5874 5874
5896 5895 5893 5892 5891 5890 5889 5888 5887 5886 5885 5884 5883 5882 5881 5880 5879 5877 5876 5876 5875 5874 5873 5873 5872 5872 5871 5871 5870 5870 5869 5869 5869 5870 5870 5869 5870 5870 5871 5871 5872 5872 5872
5895 5894 5893 5892 5890 5889 5888 5886 5885 5884 5883 5882 5881 5880 5879 5878 5877 5876 5874 5874 5873 5872 5871 5870 5870 5869 5869 5868 5868 5867 5867 5867 5867 5867 5867 5867 5868 5868 5868 5869 5869 5870 5870
5894 5893 5891 5890 5888 5887 5886 5884 5883 5882 5881 5880 5879 5878 5877 5876 5875 5873 5872 5871 5870 5870 5869 5868 5867 5867 5866 5865 5865 5864 5864 5864 5864 5864 5864 5865 5865 5865 5865 5866 5866 5867 5868
5893 5891 5889 5888 5886 5885 5884 5882 5881 5880 5879 5878 5877 5876 5874 5873 5872 5871 5870 5869 5868 5867 5866 5865 5865 5864 5863 5862 5862 5861 5861 5861 5861 5861 5861 5861 5862 5862 5862 5863 5863 5864 5865
5890 5889 5887 5886 5884 5883 5882 5880 5879 5877 5876 5875 5874 5873 5872 5870 5869 5868 5867 5866 5866 5864 5863 5863 5862 5861 5860 5859 5859 5858 5858 5858 5858 5858 5858 5858 5858 5859 5859 5860 5860 5861 5862
5888 5886 5885 5883 5882 5880 5879 5877 5876 5874 5873 5872 5870 5869 5868 5867 5866 5865 5864 5863 5862 5862 5861 5860 5859 5858 5857 5856 5855 5855 5855 5855 5855 5855 5854 5854 5855 5855 5856 5856 5857 5858 5858
5885 5884 5882 5881 5879 5877 5876 5874 5873 5871 5870 5868 5867 5866 5865 5864 5862 5861 5860 5859 5858 5858 5857 5856 5855 5854 5853 5853 5852 5851 5851 5851 5851 5851 5851 5851 5851 5851 5852 5852 5853 5854 5855
5883 5881 5879 5877 5876 5875 5873 5871 5870 5868 5867 5865 5864 5862 5861 5860 5859 5857 5856 5855 5855 5854 5853 5852 5851 5850 5850 5849 5848 5848 5847 5847 5847 5847 5847 5847 5847 5848 5848 5848 5849 5850 5851
5880 5878 5876 5875 5873 5871 5869 5868 5866 5865 5863 5861 5860 5858 5857 5856 5854 5853 5852 5851 5850 5850 5849 5848 5847 5846 5846 5845 5844 5843 5843 5843 5842 5842 5843 5843 5843 5843 5844 5844 5845 5846 5846
5876 5875 5873 5871 5870 5868 5866 5865 5863 5861 5859 5858 5856 5854 5853 5851 5850 5849 5848 5847 5846 5845 5844 5843 5843 5842 5841 5840 5840 5839 5839 5838 5838 5838 5838 5839 5839 5839 5839 5840 5840 5841 5841
5873 5870 5869 5867 5866 5864 5862 5861 5859 5857 5855 5854 5852 5850 5848 5847 5846 5844 5843 5842 5841 5840 5840 5839 5838 5837 5837 5836 5835 5835 5834 5834 5834 5833 5834 5834 5834 5835 5835 5835 5835 5836 5837
5870 5867 5865 5863 5862 5860 5858 5856 5854 5853 5851 5849 5847 5845 5843 5842 5840 5839 5837 5837 5836 5835 5834 5833 5833 5832 5832 5831 5831 5830 5830 5829 5829 5829 5829 5829 5829 5830 5830 5830 5830 5831 5832
5866 5863 5861 5859 5858 5856 5854 5851 5849 5848 5845 5843 5842 5839 5837 5836 5835 5834 5832 5831 5831 5830 5829 5828 5827 5827 5826 5826 5825 5825 5825 5824 5824 5824 5824 5824 5824 5825 5825 5826 5826 5827 5827
5862 5859 5856 5854 5852 5850 5848 5846 5844 5842 5839 5837 5835 5833 5831 5830 5829 5828 5827 5826 5825 5824 5823 5822 5822 5821 5820 5820 5820 5820 5819 5819 5819 5819 5819 5818 5819 5820 5820 5821 5821 5822 5822
5858 5855 5852 5850 5847 5845 5843 5840 5838 5835 5834 5831 5829 5826 5825 5824 5823 5821 5820 5819 5818 5818 5817 5816 5815 5815 5814 5814 5814 5814 5814 5813 5813 5813 5813 5813 5813 5814 5814 5815 5816 5817 5817
5853 5850 5848 5845 5842 5839 5837 5834 5832 5830 5827 5824 5822 5820 5818 5817 5816 5815 5813 5812 5812 5812 5811 5810 5809 5809 5809 5808 5808 5808 5808 5808 5807 5807 5807 5807 5807 5808 5808 5809 5810 5811 5812
5848 5845 5842 5839 5836 5834 5831 5828 5826 5824 5821 5818 5816 5814 5811 5810 5808 5807 5806 5805 5805 5805 5804 5803 5803 5803 5802 5802 5802 5802 5802 5802 5801 5801 5801 5801 5801 5802 5802 5803 5804 5805 5806
5843 5840 5836 5833 5830 5828 5825 5822 5820 5817 5815 5812 5810 5807 5804 5802 5800 5798 5798 5798 5798 5798 5797 5797 5797 5796 5796 5796 5796 5795 5795 5795 5795 5795 5795 5795 5795 5795 5796 5796 5797 5798 5799
5838 5834 5831 5828 5825 5821 5818 5816 5813 5811 5808 5805 5803 5801 5798 5796 5794 5793 5792 5791 5791 5792 5791 5790 5790 5790 5790 5790 5789 5789 5789 5789 5789 5789 5789 5789 5789 5789 5789 5790 5790 5791 5793
5833 5830 5827 5824 5820 5816 5812 5809 5806 5804 5801 5799 5796 5793 5791 5789 5787 5787 5786 5785 5785 5785 5785 5784 5784 5784 5783 5783 5783 5783 5782 5782 5782 5782 5782 5782 5783 5783 5783 5783 5784 5785 5786
5828 5824 5821 5818 5814 5810 5806 5802 5799 5796 5794 5791 5788 5786 5785 5783 5781 5781 5780 5779 5779 5778 5778 5778 5777 5777 5777 5777 5776 5776 5776 5777 5776 5776 5776 5776 5776 5777 5777 5777 5778 5778 5779
5822 5818 5815 5811 5808 5804 5800 5796 5792 5789 5786 5784 5782 5780 5779 5777 5776 5775 5774 5773 5772 5771 5771 5771 5771 5770 5770 5770 5769 5769 5769 5769 5769 5769 5769 5769 5769 5769 5770 5770 5771 5771 5772
5816 5812 5808 5804 5801 5796 5792 5788 5785 5782 5779 5777 5775 5773 5772 5770 5769 5768 5767 5766 5765 5764 5764 5764 5764 5763 5763 5763 5763 5763 5763 5762 5761 5762 5762 5762 5762 5762 5762 5762 5763 5764 5764
5810 5805 5801 5797 5793 5788 5784 5781 5777 5774 5771 5769 5767 5765 5764 5763 5762 5761 5760 5759 5758 5758 5757 5757 5757 5757 5756 5756 5756 5756 5755 5754 5754 5754 5755 5755 5754 5754 5754 5754 5755 5755 5756
5804 5798 5793 5789 5785 5780 5776 5773 5769 5767 5764 5761 5759 5757 5756 5755 5755 5754 5753 5752 5752 5751 5750 5750 5750 5749 5749 5749 5749 5748 5748 5747 5747 5747 5747 5747 5747 5746 5746 5746 5746 5747 5747